Location: Ellerstadt
(49.4644°N, 8.2615°E)
Time: 23:08:34
(UTC+00:00)

Resurs 01 Rocket - Pass Details

Date: 03 March 2021
Orbit: 635 x 643 km, 98.0° (Epoch: 13 April)

Event Time Altitude Azimuth Distance (km) Brightness Sun altitude
Exits shadow 19:12:41 33° 51° (NE) 1,087 2.5 -20.1°
Drops below altitude 10° 19:16:07 10° 2° (N) 2,036 4.3 -20.6°
Sets 19:18:29 0° 354° (N) 2,950 5.3 -21.0°
